Regional Weather Roundup
Issued by NWS Wakefield, VA

Home | Current Version | Previous Version | Graphics & Text | Print | Product List | Glossary On
Versions: 1 2 3 4 5 6 7 8 9 10 11 12 13 14 15 16 17 18 19 20 21 22 23 24 25 26 27 28 29 30 31 32 33 34 35 36 37 38 39 40 41 42 43 44 45 46 47 48 49 50
880
ASUS41 KAKQ 240415
RWRAKQ

REGIONAL WEATHER ROUNDUP
NATIONAL WEATHER SERVICE WAKEFIELD VA
1100 PM EST MON JAN 23 2017

Note: "fair" indicates few or no clouds below 12,000 feet with no
significant weather and/or obstructions to visibility. * = Denotes
station may not report precipitation (e.g., rain,snow,etc.),
thunder or fog.

VAZ042-051-052>054-056-240500-
NORTHERN VIRGINIA

CITY           SKY/WX    TMP DP  RH WIND       PRES   REMARKS
WASH NATIONAL  LGT RAIN  40  38  93 N17       29.48R FOG
DULLES         LGT RAIN  36  34  92 N12       29.50S FOG
FORT BELVOIR   LGT RAIN  39  36  91 N9        29.48R
QUANTICO       CLOUDY    40  39  97 N13G24    29.49S
FREDERICKSBRG* DRIZZLE   39  39 100 N8G18     29.47S
STAFFORD*      DRIZZLE   37  37 100 N12       29.52R
WARRENTON      CLOUDY    38  35  86 N12       29.50R
CULPEPER*      DRIZZLE   38  37  96 N12       29.52R
MANASSAS*      NOT AVBL
LEESBURG*      LGT RAIN  37  37 100 N10G24    29.52S
WINCHESTER     CLOUDY    32  32 100 NW7       29.54F FOG
FRONT ROYAL*   CLOUDY    34  34 100 N5        29.54S
LURAY*         CLOUDY    34  34 100 CALM      29.54S
$$

VAZ048-049-060>072-079>083-240500-
CENTRAL AND SOUTH CENTRAL VIRGINIA

CITY           SKY/WX    TMP DP  RH WIND       PRES   REMARKS
RICHMOND       LGT RAIN  40  39  97 N16G24    29.43R FOG
CHESTERFIELD*  CLOUDY    39  25  56 N13       29.45R
PETERSBURG*    NOT AVBL
HANOVER        LGT RAIN  39  39 100 N8G16     29.45S
TAPPAHANNOCK*  LGT RAIN  40  40 100 NE10G20   29.41S
QUINTON*       CLOUDY    40  40 100 NW8G21    29.41R FOG
CHARLOTTSVILLE CLOUDY    39  36  89 W5        29.50S
GORDONSVILLE*  CLOUDY    37  35  94 N7        29.49S FOG
ORANGE*        RAIN      37  37 100 NW14G21   29.51S
LOUISA*        DRIZZLE   39  39 100 N10G18    29.47S
BUMPASS*       CLOUDY    37  37 100 N7        29.47S
FARMVILLE*     CLOUDY    40  38  95 N5        29.48S
CREWE*         CLOUDY    38  38 100 NW8G16    29.46S
FORT PICKETT*  CLOUDY    38  35  88 N13G20    29.45R
CHASE CITY*    CLOUDY    38  37  94 N9G17     29.48R
CLARKSVILLE*   CLOUDY    39  37  93 NW8       29.48R
SOUTH HILL*    CLOUDY    39  38  98 N10G16    29.51R
LAWRENCEVILLE* CLOUDY    40  39  95 NW12      29.43S
EMPORIA*       CLOUDY    41  41 100 W9G22     29.43R
$$

VAZ088>098-240500-
SOUTHEAST VIRGINIA

CITY           SKY/WX    TMP DP  RH WIND       PRES   REMARKS
NORFOLK        LGT RAIN  46  44  93 N12G20    29.32R FOG
VIRGINIA BEACH LGT RAIN  46  44  93 NW13      29.31R FOG
NORFOLK NAVAL  LGT RAIN  46  44  93 NW16G24   29.35R
WEST POINT*    CLOUDY    42  41  97 NW9       29.40R
SALUDA*        CLOUDY    42  42 100 NW13G18   29.36R
NEWPORT NEWS   CLOUDY    45  43  93 NW15G21   29.35R
LANGLEY AFB    CLOUDY    45  45  99 N12G20    29.34R
FORT EUSTIS    CLOUDY    45  42  90 NW12G20   29.34R
WILLIAMSBURG*  CLOUDY    45  45 100 NW12G18   29.38R
HR EXEC AP*    CLOUDY    46  43  87 N8        29.33R
FRANKLIN*      CLOUDY    45  43  95 NW12      29.39R FOG
US460-WAKEFLD  LGT RAIN  43  42  97 NW9G17    29.39R FOG
$$

VAZ020-022-025-037-045-240500-
WEST CENTRAL AND SOUTHWEST VIRGINIA

CITY           SKY/WX    TMP DP  RH WIND       PRES   REMARKS
STAUNTON*      CLOUDY    34  32  94 N7        29.55S
WAYNESBORO*    CLOUDY    33  32  96 N6        29.52S
HOT SPRINGS VA CLOUDY    25  25 100 N10       29.45S FOG     WCI  15
LYNCHBURG      CLOUDY    39  35  86 NW6       29.52R
DANVILLE       CLOUDY    42  39  89 N8        29.52R
SOUTH BOSTON*  CLOUDY    40  38  93 N8G20     29.50S
MARTINSVILLE   CLOUDY    41  38  89 NE3       29.53S
ROANOKE        CLOUDY    40  36  86 NE10      29.55R
BLACKSBURG     DRIZZLE   39  37  94 NE3       29.53R
DUBLIN*        RAIN      41  39  95 N7        29.52R
MARION*        LGT RAIN  44  41  90 W21G32    29.53R
HILLSVILLE*    MIX PCPN  39  39 100 CALM      29.48R
RICHLANDS*     LGT RAIN  41  41 100 NW8       29.55R
WISE*          DRIZZLE   43  43 100 W15       29.59R
ABINGDON*      DRIZZLE   46  44  92 NW7       29.56S
$$

MDZ021>025-VAZ099-100-240500-
SOUTHERN MARYLAND AND THE DELMARVA PENINSULA

CITY           SKY/WX    TMP DP  RH WIND       PRES   REMARKS
PATUXENT RIVER LGT RAIN  40  39  97 N18       29.39R FOG
BAY BRIDGE APT CLOUDY    41  36  81 N15G23    29.43S
LEONARDTOWN    CLOUDY    37  36  93 N6G16     29.41S
DOVER          CLOUDY    42  42 100 N17       29.37S
GEORGETOWN     CLOUDY    45  40  82 N18G33    29.35S
EASTON         CLOUDY    42  37  82 NE17G23   29.42S
CAMBRIDGE      CLOUDY    39  37  93 N10G20    29.37R
SALISBURY      LGT RAIN  44  43  96 NE17G32   29.31S FOG
OCEAN CITY     CLOUDY    45  44  97 NE20G28   29.30F
WALLOPS ISLAND CLOUDY    46  46 100 NE22G30   29.28R
ACCOMACK*      CLOUDY    48  47  94 N7        29.29R
$$

NCZ012>017-030>032-240500-
NORTH CENTRAL AND EASTERN NORTH CAROLINA

CITY           SKY/WX    TMP DP  RH WIND       PRES   REMARKS
ROANOKE RAPIDS CLOUDY    43  41  93 NW12G22   29.42R
RALEIGH        CLOUDY    44  39  82 VRB6      29.47R
ELIZABETH CITY CLOUDY    49  47  93 NW14      29.32R
AHOSKIE*         N/A     45  43  94 NW3       29.39R
EDENTON*       CLOUDY    51  48  90 NW13      29.35R
CURRITUCK*     RAIN      49  49 100 NW8G17    29.32S
KILL DEVIL HLS NOT AVBL
MANTEO         CLOUDY    50  50 100 NW9G20    29.29S
CAPE HATTERAS  CLOUDY    54  51  90 NW13G22   29.29R
TARBORO*       NOT AVBL
GOLDSBORO      CLOUDY    49  48  98 NW10G18   29.41R
WASHINGTON     CLOUDY    48  46  91 NW10G17     N/A
GREENVILLE     CLOUDY    48  45  87 N13G18    29.45R
NEW BERN       CLOUDY    52  49  89 NW15G23   29.38R
WILMINGTON     PTCLDY    51  50  96 W10       29.41R
$$

VAZ048-240500-
ELSEWHERE

CITY           SKY/WX    TMP DP  RH WIND       PRES   REMARKS
HARRISBURG PA  DRIZZLE   37  35  92 N7        29.53F
BALTIMORE      CLOUDY    38  36  92 N14G20    29.46S
ANNAPOLIS      CLOUDY   N/A N/A N/A N15G29    29.43F
ANDREWS AFB    MIX PCPN  38  36  94 N15       29.44R
PHILADELPHIA   LGT RAIN  38  34  85 NE29G44   29.40F
HENDERSON NC   CLOUDY    38  35  90 N10G18    29.47R
GREENSBORO     CLOUDY    43  40  89 NE10      29.49R
ROCKY MOUNT    CLOUDY    46  42  86 N13G25    29.43R
$$

VAZ100-240500-
MARINE

STATION/POSITION TIME  TEMP    WIND        PRES    WAVE   SWELL
                       AIR SEA DIR/SP/G            HT/PER HT/PER
                 (UTC) (F)     (DEG/KT/KT) (MB)    (FT/S) (FT/S)
CAPE MAY NJ      0348   43 44   40/ 13/ 26  991.2R
LEWES DE         0342   44 43   30/ 22/ 26  993.6R
OCEAN-CITY-INLET 0342   44 44   30/ 11/ 19  992.8R
WACHAPREAGUE VA  0348   47 49   20/ 15/ 22  991.4R
THOMAS POINT MD  0400   40 40   20/ 28/ 32   N/A
GOOSES REEF MD   0350   40     350/ 21/ 23  996.8R
COVE POINT MD    0348   39      10/ 17/ 23  995.8R
SOLOMONS ISLAND  0342   40 42  350/ 13/ 20   N/A
BISHOPS HEAD MD  0348   43 45   10/ 13/ 19  993.7R
PINEY POINT MD   0348           10/ 17/ 18   N/A
POTOMAC MD       0350   41     350/ 16/ 21  993.5R
CAMBRIDGE MD     0348   42 43   20/ 16/ 21  993.6F
LEWISETTA VA     0348   41 45  350/ 13/ 17  994.7R
RAPPAHANNOCK LGT 0348          340/ 21/ 23  992.8R
STINGRAY PT      0350   42     360/ 21/ 25  993.2R
YORK RVR RNG VA  0348   44     350/ 21/ 25  992.4R
YORKTOWN VA      0348   45 45  330/ 14/ 18  993.4R
JAMESTOWN VA     0350   44     320/ 16/ 19   N/A
DOMINION TERM VA 0348   46     340/ 14/ 21  993.4R
CHES BAY BRIDGE  0348   44 46  340/ 21/ 25  992.5R
CAPE HENRY VA    0348   45     330/ 24/ 27   N/A
WILLOUBY STN VA  0348   45     330/ 19/ 25  994.1R
S CRANEY ISL VA  0348   46     330/ 10/ 16  993.0R
CAPE HENRY BUOY  0342      47                N/A     8/11   5/11
OFFSHORE WE BUOY 0351      47                N/A     9/12   5/12
64NM E OF VA BCH 0350   51 54  280/ 14/ 17  989.7R  14/11  13/11
DUCK PIER NC     0348   49 47  320/ 14/ 19  990.9R
44100 DUCK FRF   0335      49                N/A     9/11   7/11
44056 DUCK FRF   0330      47                N/A     7/13   5/13
OREGON INLET NC  0342   51 50  300/ 12/ 15  991.1R
HATTERAS NC      0348          280/ 20/ 25  991.3R
DIAMOND SHLS NC  0350   61 76  300/ 23/ 29  990.8S   7/11   7/11
CAPE LOOKOUT NC  0300   54     280/ 12/ 15  992.7R
$$




USA.gov is the U.S. government's official web portal to all federal, state and local government web resources and services.